Time,TemperatureF,DewpointF,PressureIn,WindDirection,WindDirectionDegrees,WindSpeedMPH,WindSpeedGustMPH,Humidity,HourlyPrecipIn,Conditions,Clouds,dailyrainin,SoftwareType,DateUTC
2013-01-19 00:03:00,34.0,21.2,30.12,SSE,167,5.0,8.0,59,0.00,,,0.00,Wunderground v.1.15,2013-01-19 05:03:00,
2013-01-19 00:04:00,34.1,20.9,30.12,South,187,5.0,8.0,58,0.00,,,0.00,Wunderground v.1.15,2013-01-19 05:04:00,
2013-01-19 00:10:00,34.3,21.0,30.12,SE,135,6.0,6.0,58,0.00,,,0.00,Wunderground v.1.15,2013-01-19 05:10:00,
2013-01-19 00:15:00,34.4,21.1,30.12,West,277,7.0,8.0,58,0.00,,,0.00,Wunderground v.1.15,2013-01-19 05:15:00,
2013-01-19 00:20:00,34.5,21.2,30.12,SE,141,6.0,9.0,58,0.00,,,0.00,Wunderground v.1.15,2013-01-19 05:20:00,
2013-01-19 00:27:00,34.5,21.2,30.12,SW,214,5.0,9.0,58,0.00,,,0.00,Wunderground v.1.15,2013-01-19 05:27:00,
2013-01-19 00:32:00,34.4,21.1,30.12,WNW,285,5.0,7.0,58,0.00,,,0.00,Wunderground v.1.15,2013-01-19 05:32:00,
2013-01-19 00:38:00,34.4,21.1,30.12,ESE,103,6.0,6.0,58,0.00,,,0.00,Wunderground v.1.15,2013-01-19 05:38:00,
2013-01-19 00:44:00,34.3,21.4,30.11,NE,51,6.0,13.0,59,0.00,,,0.00,Wunderground v.1.15,2013-01-19 05:44:00,
2013-01-19 00:49:00,34.3,21.4,30.12,South,178,6.0,9.0,59,0.00,,,0.00,Wunderground v.1.15,2013-01-19 05:49:00,
2013-01-19 00:54:00,34.2,21.4,30.11,WSW,238,6.0,9.0,59,0.00,,,0.00,Wunderground v.1.15,2013-01-19 05:54:00,
2013-01-19 01:00:00,34.3,22.0,30.12,SSE,154,9.0,11.0,60,0.00,,,0.00,weatherlink.com 1.10,2013-01-19 06:00:00,
2013-01-19 01:06:00,34.4,21.5,30.12,West,273,5.0,11.0,59,0.00,,,0.00,Wunderground v.1.15,2013-01-19 06:06:00,
2013-01-19 01:11:00,34.5,21.6,30.13,SSE,162,4.0,5.0,59,0.00,,,0.00,Wunderground v.1.15,2013-01-19 06:11:00,
2013-01-19 01:18:00,34.9,22.0,30.12,WSW,256,5.0,8.0,59,0.00,,,0.00,Wunderground v.1.15,2013-01-19 06:18:00,
2013-01-19 01:23:00,34.9,21.6,30.12,East,85,7.0,9.0,58,0.00,,,0.00,Wunderground v.1.15,2013-01-19 06:23:00,
2013-01-19 01:28:00,35.0,21.7,30.11,South,174,6.0,7.0,58,0.00,,,0.00,Wunderground v.1.15,2013-01-19 06:28:00,
2013-01-19 01:34:00,34.7,21.8,30.11,WNW,290,5.0,7.0,59,0.00,,,0.00,Wunderground v.1.15,2013-01-19 06:34:00,
2013-01-19 01:39:00,34.5,22.0,30.11,South,190,4.0,5.0,60,0.00,,,0.00,Wunderground v.1.15,2013-01-19 06:39:00,
2013-01-19 01:45:00,34.6,21.7,30.11,SSW,195,7.0,10.0,59,0.00,,,0.00,Wunderground v.1.15,2013-01-19 06:45:00,
2013-01-19 01:50:00,34.7,21.8,30.13,ESE,123,6.0,10.0,59,0.00,,,0.00,Wunderground v.1.15,2013-01-19 06:50:00,
2013-01-19 01:58:00,34.5,22.0,30.12,WSW,240,5.0,5.0,60,0.00,,,0.00,Wunderground v.1.15,2013-01-19 06:58:00,
2013-01-19 02:04:00,34.4,21.9,30.12,SE,142,4.0,7.0,60,0.00,,,0.00,Wunderground v.1.15,2013-01-19 07:04:00,
2013-01-19 02:09:00,34.4,21.9,30.12,SSW,198,5.0,8.0,60,0.00,,,0.00,Wunderground v.1.15,2013-01-19 07:09:00,
2013-01-19 02:15:00,34.4,22.3,30.12,North,351,4.0,8.0,61,0.00,,,0.00,Wunderground v.1.15,2013-01-19 07:15:00,
2013-01-19 02:20:00,34.4,21.9,30.12,WSW,248,3.0,7.0,60,0.00,,,0.00,Wunderground v.1.15,2013-01-19 07:20:00,
2013-01-19 02:26:00,34.3,21.8,30.12,ENE,75,4.0,8.0,60,0.00,,,0.00,Wunderground v.1.15,2013-01-19 07:26:00,
2013-01-19 02:31:00,34.5,22.4,30.12,SSW,197,4.0,5.0,61,0.00,,,0.00,Wunderground v.1.15,2013-01-19 07:31:00,
2013-01-19 02:38:00,34.4,21.9,30.12,South,182,3.0,5.0,60,0.00,,,0.00,Wunderground v.1.15,2013-01-19 07:38:00,
2013-01-19 02:43:00,34.5,22.0,30.12,SSE,158,4.0,9.0,60,0.00,,,0.00,Wunderground v.1.15,2013-01-19 07:43:00,
2013-01-19 02:49:00,34.4,22.3,30.12,SSW,204,4.0,4.0,61,0.00,,,0.00,Wunderground v.1.15,2013-01-19 07:49:00,
2013-01-19 02:55:00,34.4,22.3,30.12,SW,215,4.0,7.0,61,0.00,,,0.00,Wunderground v.1.15,2013-01-19 07:55:00,
2013-01-19 03:00:00,34.3,22.2,30.12,WSW,253,4.0,4.0,61,0.00,,,0.00,Wunderground v.1.15,2013-01-19 08:00:00,
2013-01-19 03:06:00,34.3,22.2,30.12,SSW,193,4.0,5.0,61,0.00,,,0.00,Wunderground v.1.15,2013-01-19 08:06:00,
2013-01-19 03:12:00,34.1,22.0,30.11,SW,228,3.0,5.0,61,0.00,,,0.00,Wunderground v.1.15,2013-01-19 08:12:00,
2013-01-19 03:17:00,34.0,22.0,30.11,SE,129,4.0,6.0,61,0.00,,,0.00,Wunderground v.1.15,2013-01-19 08:17:00,
2013-01-19 03:23:00,34.1,22.0,30.11,South,174,4.0,6.0,61,0.00,,,0.00,Wunderground v.1.15,2013-01-19 08:23:00,
2013-01-19 03:28:00,34.1,22.0,30.11,SSE,162,4.0,5.0,61,0.00,,,0.00,Wunderground v.1.15,2013-01-19 08:28:00,
2013-01-19 03:33:00,34.2,22.1,30.10,ESE,122,4.0,11.0,61,0.00,,,0.00,Wunderground v.1.15,2013-01-19 08:33:00,
2013-01-19 03:39:00,34.3,22.2,30.10,ESE,120,5.0,9.0,61,0.00,,,0.00,Wunderground v.1.15,2013-01-19 08:39:00,
2013-01-19 03:44:00,34.3,22.2,30.10,SSE,153,4.0,9.0,61,0.00,,,0.00,Wunderground v.1.15,2013-01-19 08:44:00,
2013-01-19 03:50:00,34.2,22.1,30.10,SSE,150,3.0,4.0,61,0.00,,,0.00,Wunderground v.1.15,2013-01-19 08:50:00,
2013-01-19 03:56:00,34.2,22.1,30.10,West,277,4.0,6.0,61,0.00,,,0.00,Wunderground v.1.15,2013-01-19 08:56:00,
2013-01-19 04:02:00,34.2,22.1,30.10,South,187,4.0,4.0,61,0.00,,,0.00,Wunderground v.1.15,2013-01-19 09:02:00,
2013-01-19 04:07:00,34.2,22.1,30.09,NE,37,4.0,4.0,61,0.00,,,0.00,Wunderground v.1.15,2013-01-19 09:07:00,
2013-01-19 04:13:00,34.1,22.0,30.09,ESE,117,4.0,4.0,61,0.00,,,0.00,Wunderground v.1.15,2013-01-19 09:13:00,
2013-01-19 04:19:00,34.1,22.0,30.09,WSW,238,4.0,7.0,61,0.00,,,0.00,Wunderground v.1.15,2013-01-19 09:19:00,
2013-01-19 04:25:00,34.1,22.0,30.09,ESE,115,4.0,9.0,61,0.00,,,0.00,Wunderground v.1.15,2013-01-19 09:25:00,
2013-01-19 04:31:00,34.0,22.0,30.08,SE,139,4.0,4.0,61,0.00,,,0.00,Wunderground v.1.15,2013-01-19 09:31:00,
2013-01-19 04:37:00,33.9,22.2,30.08,SSE,165,3.0,5.0,62,0.00,,,0.00,Wunderground v.1.15,2013-01-19 09:37:00,
2013-01-19 04:44:00,33.9,21.9,30.08,East,90,4.0,5.0,61,0.00,,,0.00,Wunderground v.1.15,2013-01-19 09:44:00,
2013-01-19 04:50:00,33.8,22.1,30.08,South,183,3.0,4.0,62,0.00,,,0.00,Wunderground v.1.15,2013-01-19 09:50:00,
2013-01-19 04:55:00,33.9,22.2,30.08,SE,146,4.0,5.0,62,0.00,,,0.00,Wunderground v.1.15,2013-01-19 09:55:00,
2013-01-19 05:02:00,33.8,22.1,30.08,SSW,207,3.0,5.0,62,0.00,,,0.00,Wunderground v.1.15,2013-01-19 10:02:00,
2013-01-19 05:07:00,33.8,22.1,30.08,SSE,160,4.0,8.0,62,0.00,,,0.00,Wunderground v.1.15,2013-01-19 10:07:00,
2013-01-19 05:12:00,33.7,22.1,30.08,SSE,165,4.0,4.0,62,0.00,,,0.00,Wunderground v.1.15,2013-01-19 10:12:00,
2013-01-19 05:18:00,33.6,22.0,30.08,SSE,155,2.0,9.0,62,0.00,,,0.00,weatherlink.com 1.10,2013-01-19 10:18:00,
2013-01-19 05:23:00,33.5,21.9,30.08,SSE,162,3.0,4.0,62,0.00,,,0.00,Wunderground v.1.15,2013-01-19 10:23:00,
2013-01-19 05:29:00,33.5,21.9,30.08,SSE,162,3.0,5.0,62,0.00,,,0.00,Wunderground v.1.15,2013-01-19 10:29:00,
2013-01-19 05:35:00,33.3,22.1,30.08,SE,137,3.0,5.0,63,0.00,,,0.00,Wunderground v.1.15,2013-01-19 10:35:00,
2013-01-19 05:42:00,33.2,22.0,30.08,NE,36,3.0,4.0,63,0.00,,,0.00,Wunderground v.1.15,2013-01-19 10:42:00,
2013-01-19 05:47:00,33.2,22.0,30.08,South,173,3.0,3.0,63,0.00,,,0.00,Wunderground v.1.15,2013-01-19 10:47:00,
2013-01-19 05:53:00,33.2,22.0,30.08,ESE,120,3.0,4.0,63,0.00,,,0.00,Wunderground v.1.15,2013-01-19 10:53:00,
2013-01-19 05:59:00,33.2,22.0,30.08,SSE,156,3.0,5.0,63,0.00,,,0.00,Wunderground v.1.15,2013-01-19 10:59:00,
2013-01-19 06:05:00,33.2,22.0,30.08,SSE,159,3.0,5.0,63,0.00,,,0.00,Wunderground v.1.15,2013-01-19 11:05:00,
2013-01-19 06:12:00,33.3,22.1,30.08,SSE,150,3.0,8.0,63,0.00,,,0.00,Wunderground v.1.15,2013-01-19 11:12:00,
2013-01-19 07:48:00,33.9,22.6,30.08,SE,145,3.0,5.0,63,0.00,,,0.00,Wunderground v.1.15,2013-01-19 12:48:00,
2013-01-19 07:49:00,33.9,22.0,30.08,SE,146,3.0,8.0,63,0.00,,,0.00,weatherlink.com 1.10,2013-01-19 12:49:00,
2013-01-19 07:50:00,33.8,22.5,30.08,SE,145,3.0,3.0,63,0.00,,,0.00,Wunderground v.1.15,2013-01-19 12:50:00,
2013-01-19 07:52:00,33.8,22.5,30.08,SSE,162,3.0,4.0,63,0.00,,,0.00,Wunderground v.1.15,2013-01-19 12:52:00,
2013-01-19 07:58:00,33.9,23.0,30.08,WNW,286,3.0,3.0,64,0.00,,,0.00,Wunderground v.1.15,2013-01-19 12:58:00,
2013-01-19 08:04:00,34.0,23.0,30.08,West,262,4.0,7.0,64,0.00,,,0.00,weatherlink.com 1.10,2013-01-19 13:04:00,
2013-01-19 08:09:00,34.1,23.2,30.08,SE,141,3.0,3.0,64,0.00,,,0.00,Wunderground v.1.15,2013-01-19 13:09:00,
2013-01-19 08:14:00,34.3,23.4,30.08,ESE,113,3.0,4.0,64,0.00,,,0.00,Wunderground v.1.15,2013-01-19 13:14:00,
2013-01-19 08:19:00,34.6,23.7,30.08,SSE,162,3.0,4.0,64,0.00,,,0.00,Wunderground v.1.15,2013-01-19 13:19:00,
2013-01-19 08:24:00,35.3,24.0,30.08,SE,146,3.0,5.0,63,0.00,,,0.00,Wunderground v.1.15,2013-01-19 13:24:00,
2013-01-19 08:29:00,36.1,24.3,30.08,South,191,3.0,3.0,62,0.00,,,0.00,Wunderground v.1.15,2013-01-19 13:29:00,
2013-01-19 08:35:00,36.7,24.5,30.08,South,174,3.0,4.0,61,0.00,,,0.00,Wunderground v.1.15,2013-01-19 13:35:00,
2013-01-19 08:40:00,37.2,24.6,30.08,SW,215,3.0,8.0,60,0.00,,,0.00,Wunderground v.1.15,2013-01-19 13:40:00,
2013-01-19 08:46:00,37.7,24.6,30.08,NNE,12,4.0,8.0,59,0.00,,,0.00,Wunderground v.1.15,2013-01-19 13:46:00,
2013-01-19 08:52:00,38.2,25.1,30.08,SSE,165,5.0,8.0,59,0.00,,,0.00,Wunderground v.1.15,2013-01-19 13:52:00,
2013-01-19 08:58:00,38.7,25.2,30.08,SW,221,3.0,3.0,58,0.00,,,0.00,Wunderground v.1.15,2013-01-19 13:58:00,
2013-01-19 09:04:00,39.0,25.0,30.07,NW,309,3.0,14.0,57,0.00,,,0.00,weatherlink.com 1.10,2013-01-19 14:04:00,
2013-01-19 09:11:00,39.4,25.4,30.08,SW,226,3.0,9.0,57,0.00,,,0.00,Wunderground v.1.15,2013-01-19 14:11:00,
2013-01-19 09:18:00,39.7,25.3,30.08,SE,143,3.0,9.0,56,0.00,,,0.00,Wunderground v.1.15,2013-01-19 14:18:00,
2013-01-19 09:23:00,39.9,25.5,30.08,WNW,284,4.0,10.0,56,0.00,,,0.00,Wunderground v.1.15,2013-01-19 14:23:00,
2013-01-19 09:29:00,40.2,25.7,30.08,WSW,256,4.0,6.0,56,0.00,,,0.00,Wunderground v.1.15,2013-01-19 14:29:00,
2013-01-19 09:35:00,40.4,25.5,30.08,SSW,208,5.0,8.0,55,0.00,,,0.00,Wunderground v.1.15,2013-01-19 14:35:00,
2013-01-19 09:41:00,40.8,25.9,30.08,SW,219,4.0,6.0,55,0.00,,,0.00,Wunderground v.1.15,2013-01-19 14:41:00,
2013-01-19 09:47:00,41.1,26.1,30.08,South,170,4.0,6.0,55,0.00,,,0.00,Wunderground v.1.15,2013-01-19 14:47:00,
2013-01-19 09:53:00,41.5,26.1,30.08,SW,218,4.0,11.0,54,0.00,,,0.00,Wunderground v.1.15,2013-01-19 14:53:00,
2013-01-19 09:59:00,41.8,25.9,30.08,SW,214,5.0,14.0,53,0.00,,,0.00,Wunderground v.1.15,2013-01-19 14:59:00,
2013-01-19 10:05:00,42.1,26.2,30.07,SSE,162,6.0,14.0,53,0.00,,,0.00,Wunderground v.1.15,2013-01-19 15:05:00,
2013-01-19 10:10:00,42.6,26.6,30.07,West,272,5.0,6.0,53,0.00,,,0.00,Wunderground v.1.15,2013-01-19 15:10:00,
2013-01-19 10:16:00,43.2,26.3,30.07,SE,142,4.0,9.0,51,0.00,,,0.00,Wunderground v.1.15,2013-01-19 15:16:00,
2013-01-19 10:21:00,43.7,26.0,30.07,NNW,342,2.0,12.0,51,0.00,,,0.00,weatherlink.com 1.10,2013-01-19 15:21:00,
2013-01-19 10:26:00,44.0,26.5,30.07,SSE,156,4.0,8.0,50,0.00,,,0.00,Wunderground v.1.15,2013-01-19 15:26:00,
2013-01-19 10:32:00,44.1,26.6,30.07,NNW,347,5.0,5.0,50,0.00,,,0.00,Wunderground v.1.15,2013-01-19 15:32:00,
2013-01-19 10:38:00,44.1,26.6,30.07,SSE,153,5.0,5.0,50,0.00,,,0.00,Wunderground v.1.15,2013-01-19 15:38:00,
2013-01-19 10:43:00,44.2,26.7,30.07,South,172,6.0,15.0,50,0.00,,,0.00,Wunderground v.1.15,2013-01-19 15:43:00,
2013-01-19 10:49:00,44.5,27.0,30.07,SSE,163,6.0,6.0,50,0.00,,,0.00,Wunderground v.1.15,2013-01-19 15:49:00,
2013-01-19 10:55:00,45.0,27.0,30.06,WSW,242,4.0,11.0,49,0.00,,,0.00,Wunderground v.1.15,2013-01-19 15:55:00,
2013-01-19 11:03:00,45.3,27.2,30.06,SW,218,5.0,5.0,49,0.00,,,0.00,Wunderground v.1.15,2013-01-19 16:03:00,
2013-01-19 11:09:00,45.3,27.2,30.06,SE,131,6.0,6.0,49,0.00,,,0.00,Wunderground v.1.15,2013-01-19 16:09:00,
2013-01-19 11:15:00,45.5,27.4,30.05,WNW,296,5.0,6.0,49,0.00,,,0.00,Wunderground v.1.15,2013-01-19 16:15:00,
2013-01-19 11:20:00,45.7,27.6,30.05,WNW,283,4.0,6.0,49,0.00,,,0.00,Wunderground v.1.15,2013-01-19 16:20:00,
2013-01-19 11:27:00,46.2,27.6,30.04,South,169,5.0,8.0,48,0.00,,,0.00,Wunderground v.1.15,2013-01-19 16:27:00,
2013-01-19 11:32:00,45.9,27.3,30.03,SW,220,7.0,11.0,48,0.00,,,0.00,Wunderground v.1.15,2013-01-19 16:32:00,
2013-01-19 11:39:00,46.2,27.6,30.03,WSW,248,6.0,10.0,48,0.00,,,0.00,Wunderground v.1.15,2013-01-19 16:39:00,
2013-01-19 11:44:00,46.0,27.4,30.03,WNW,286,6.0,12.0,48,0.00,,,0.00,Wunderground v.1.15,2013-01-19 16:44:00,
2013-01-19 11:49:00,46.0,27.4,30.02,WSW,250,8.0,8.0,48,0.00,,,0.00,Wunderground v.1.15,2013-01-19 16:49:00,
2013-01-19 11:55:00,46.5,28.3,30.02,ESE,108,7.0,8.0,49,0.00,,,0.00,Wunderground v.1.15,2013-01-19 16:55:00,
2013-01-19 12:00:00,46.8,28.1,30.01,WSW,252,6.0,16.0,48,0.00,,,0.00,Wunderground v.1.15,2013-01-19 17:00:00,
2013-01-19 12:07:00,47.0,28.3,30.00,West,271,6.0,16.0,48,0.00,,,0.00,Wunderground v.1.15,2013-01-19 17:07:00,
2013-01-19 12:12:00,47.3,28.6,30.00,WSW,256,6.0,7.0,48,0.00,,,0.00,Wunderground v.1.15,2013-01-19 17:12:00,
2013-01-19 12:18:00,47.4,28.2,30.00,NW,307,6.0,6.0,47,0.00,,,0.00,Wunderground v.1.15,2013-01-19 17:18:00,
2013-01-19 12:23:00,47.8,28.0,29.99,South,189,4.0,20.0,47,0.00,,,0.00,weatherlink.com 1.10,2013-01-19 17:23:00,
2013-01-19 12:29:00,47.8,28.5,29.99,SW,229,7.0,8.0,47,0.00,,,0.00,Wunderground v.1.15,2013-01-19 17:29:00,
2013-01-19 12:35:00,48.0,28.7,29.98,ESE,120,7.0,8.0,47,0.00,,,0.00,Wunderground v.1.15,2013-01-19 17:35:00,
2013-01-19 12:41:00,47.9,28.6,29.98,NW,319,7.0,19.0,47,0.00,,,0.00,Wunderground v.1.15,2013-01-19 17:41:00,
2013-01-19 12:47:00,47.7,28.9,29.97,SE,145,9.0,9.0,48,0.00,,,0.00,Wunderground v.1.15,2013-01-19 17:47:00,
2013-01-19 12:52:00,48.5,29.0,29.97,South,172,10.0,20.0,47,0.00,,,0.00,weatherlink.com 1.10,2013-01-19 17:52:00,
2013-01-19 12:58:00,48.3,29.0,29.96,NW,323,6.0,6.0,47,0.00,,,0.00,Wunderground v.1.15,2013-01-19 17:58:00,
2013-01-19 13:04:00,48.4,29.1,29.95,SSW,213,7.0,11.0,47,0.00,,,0.00,Wunderground v.1.15,2013-01-19 18:04:00,
2013-01-19 13:10:00,48.5,29.2,29.95,WSW,243,7.0,10.0,47,0.00,,,0.00,Wunderground v.1.15,2013-01-19 18:10:00,
2013-01-19 13:16:00,48.7,29.4,29.95,SE,131,7.0,13.0,47,0.00,,,0.00,Wunderground v.1.15,2013-01-19 18:16:00,
2013-01-19 13:22:00,49.1,29.2,29.95,West,278,7.0,13.0,46,0.00,,,0.00,Wunderground v.1.15,2013-01-19 18:22:00,
2013-01-19 13:28:00,49.3,29.4,29.94,SSW,195,6.0,14.0,46,0.00,,,0.00,Wunderground v.1.15,2013-01-19 18:28:00,
2013-01-19 13:33:00,49.5,29.6,29.94,SSW,194,6.0,7.0,46,0.00,,,0.00,Wunderground v.1.15,2013-01-19 18:33:00,
2013-01-19 13:38:00,49.5,29.6,29.93,South,189,7.0,7.0,46,0.00,,,0.00,Wunderground v.1.15,2013-01-19 18:38:00,
2013-01-19 13:43:00,49.3,29.4,29.93,WSW,248,8.0,17.0,46,0.00,,,0.00,Wunderground v.1.15,2013-01-19 18:43:00,
2013-01-19 13:49:00,49.5,29.6,29.93,WNW,296,8.0,8.0,46,0.00,,,0.00,Wunderground v.1.15,2013-01-19 18:49:00,
2013-01-19 13:54:00,49.9,29.9,29.92,SSW,201,6.0,12.0,46,0.00,,,0.00,Wunderground v.1.15,2013-01-19 18:54:00,
2013-01-19 13:59:00,50.0,29.5,29.92,WNW,290,6.0,9.0,45,0.00,,,0.00,Wunderground v.1.15,2013-01-19 18:59:00,
2013-01-19 14:08:00,50.1,29.6,29.92,South,188,7.0,10.0,45,0.00,,,0.00,Wunderground v.1.15,2013-01-19 19:08:00,
2013-01-19 14:13:00,49.9,29.4,29.91,WNW,298,8.0,10.0,45,0.00,,,0.00,Wunderground v.1.15,2013-01-19 19:13:00,
2013-01-19 14:18:00,50.1,29.6,29.91,SSW,196,7.0,7.0,45,0.00,,,0.00,Wunderground v.1.15,2013-01-19 19:18:00,
2013-01-19 14:23:00,50.2,29.7,29.91,NNE,33,7.0,14.0,45,0.00,,,0.00,Wunderground v.1.15,2013-01-19 19:23:00,
2013-01-19 14:29:00,50.4,29.8,29.91,SE,141,7.0,11.0,45,0.00,,,0.00,Wunderground v.1.15,2013-01-19 19:29:00,
2013-01-19 14:35:00,50.4,29.3,29.90,NW,312,6.0,13.0,44,0.00,,,0.00,Wunderground v.1.15,2013-01-19 19:35:00,
2013-01-19 14:41:00,50.7,30.1,29.90,SSW,197,6.0,6.0,45,0.00,,,0.00,Wunderground v.1.15,2013-01-19 19:41:00,
2013-01-19 14:48:00,50.4,29.3,29.89,SSE,167,6.0,11.0,44,0.00,,,0.00,Wunderground v.1.15,2013-01-19 19:48:00,
2013-01-19 14:53:00,50.6,29.0,29.88,NNE,23,4.0,18.0,44,0.00,,,0.00,weatherlink.com 1.10,2013-01-19 19:53:00,
2013-01-19 14:59:00,50.7,29.6,29.88,SSW,207,6.0,6.0,44,0.00,,,0.00,Wunderground v.1.15,2013-01-19 19:59:00,
2013-01-19 15:08:00,50.7,29.6,29.88,NNE,23,7.0,9.0,44,0.00,,,0.00,Wunderground v.1.15,2013-01-19 20:08:00,
2013-01-19 15:14:00,50.8,29.6,29.87,West,263,7.0,9.0,44,0.00,,,0.00,Wunderground v.1.15,2013-01-19 20:14:00,
2013-01-19 15:20:00,50.7,29.6,29.87,SSE,166,7.0,10.0,44,0.00,,,0.00,Wunderground v.1.15,2013-01-19 20:20:00,
2013-01-19 15:27:00,50.9,29.7,29.87,SSE,166,7.0,11.0,44,0.00,,,0.00,Wunderground v.1.15,2013-01-19 20:27:00,
2013-01-19 15:33:00,50.8,29.6,29.87,SW,218,8.0,16.0,44,0.00,,,0.00,Wunderground v.1.15,2013-01-19 20:33:00,
2013-01-19 15:39:00,50.6,29.0,29.86,SW,222,7.0,23.0,44,0.00,,,0.00,weatherlink.com 1.10,2013-01-19 20:39:00,
2013-01-19 15:44:00,50.8,29.6,29.86,SW,215,8.0,13.0,44,0.00,,,0.00,Wunderground v.1.15,2013-01-19 20:44:00,
2013-01-19 15:49:00,50.8,29.6,29.86,WSW,248,8.0,12.0,44,0.00,,,0.00,Wunderground v.1.15,2013-01-19 20:49:00,
2013-01-19 15:55:00,50.8,29.6,29.85,West,269,7.0,12.0,44,0.00,,,0.00,Wunderground v.1.15,2013-01-19 20:55:00,
2013-01-19 16:01:00,50.8,29.6,29.84,West,273,7.0,7.0,44,0.00,,,0.00,Wunderground v.1.15,2013-01-19 21:01:00,
2013-01-19 16:08:00,50.7,29.6,29.84,SW,235,7.0,9.0,44,0.00,,,0.00,Wunderground v.1.15,2013-01-19 21:08:00,
2013-01-19 16:13:00,50.6,29.5,29.83,WNW,282,8.0,10.0,44,0.00,,,0.00,Wunderground v.1.15,2013-01-19 21:13:00,
2013-01-19 16:18:00,50.3,29.2,29.83,SW,219,7.0,7.0,44,0.00,,,0.00,Wunderground v.1.15,2013-01-19 21:18:00,
2013-01-19 16:24:00,50.4,29.3,29.83,ESE,117,7.0,16.0,44,0.00,,,0.00,Wunderground v.1.15,2013-01-19 21:24:00,
2013-01-19 16:31:00,50.4,29.3,29.82,WSW,257,7.0,17.0,44,0.00,,,0.00,Wunderground v.1.15,2013-01-19 21:31:00,
2013-01-19 16:37:00,50.2,29.1,29.82,WSW,240,8.0,17.0,44,0.00,,,0.00,Wunderground v.1.15,2013-01-19 21:37:00,
2013-01-19 16:42:00,50.1,29.0,29.82,West,260,8.0,12.0,44,0.00,,,0.00,Wunderground v.1.15,2013-01-19 21:42:00,
2013-01-19 16:48:00,50.0,28.9,29.82,SSE,165,6.0,18.0,44,0.00,,,0.00,Wunderground v.1.15,2013-01-19 21:48:00,
2013-01-19 16:55:00,49.8,28.7,29.81,NW,315,7.0,18.0,44,0.00,,,0.00,Wunderground v.1.15,2013-01-19 21:55:00,
2013-01-19 17:00:00,49.5,28.5,29.81,SW,227,6.0,7.0,44,0.00,,,0.00,Wunderground v.1.15,2013-01-19 22:00:00,
2013-01-19 17:06:00,49.3,27.7,29.81,WNW,291,7.0,12.0,43,0.00,,,0.00,Wunderground v.1.15,2013-01-19 22:06:00,
2013-01-19 17:11:00,49.2,27.6,29.81,ENE,61,7.0,12.0,43,0.00,,,0.00,Wunderground v.1.15,2013-01-19 22:11:00,
2013-01-19 17:18:00,49.0,27.5,29.80,South,191,6.0,6.0,43,0.00,,,0.00,Wunderground v.1.15,2013-01-19 22:18:00,
2013-01-19 17:24:00,48.9,27.4,29.80,SE,141,5.0,6.0,43,0.00,,,0.00,Wunderground v.1.15,2013-01-19 22:24:00,
2013-01-19 17:30:00,48.9,27.4,29.80,ESE,107,6.0,9.0,43,0.00,,,0.00,Wunderground v.1.15,2013-01-19 22:30:00,
2013-01-19 17:37:00,48.9,26.8,29.80,South,183,7.0,7.0,42,0.00,,,0.00,Wunderground v.1.15,2013-01-19 22:37:00,
2013-01-19 17:44:00,48.9,26.8,29.80,SW,231,6.0,11.0,42,0.00,,,0.00,Wunderground v.1.15,2013-01-19 22:44:00,
2013-01-19 17:50:00,48.9,26.8,29.80,SSE,155,6.0,8.0,42,0.00,,,0.00,Wunderground v.1.15,2013-01-19 22:50:00,
2013-01-19 17:55:00,48.9,26.8,29.80,WSW,238,6.0,12.0,42,0.00,,,0.00,Wunderground v.1.15,2013-01-19 22:55:00,
2013-01-19 18:01:00,48.9,26.8,29.80,South,179,5.0,12.0,42,0.00,,,0.00,Wunderground v.1.15,2013-01-19 23:01:00,
2013-01-19 18:08:00,48.9,26.8,29.81,NW,314,5.0,8.0,42,0.00,,,0.00,Wunderground v.1.15,2013-01-19 23:08:00,
2013-01-19 18:14:00,48.9,26.8,29.80,West,281,5.0,9.0,42,0.00,,,0.00,Wunderground v.1.15,2013-01-19 23:14:00,
2013-01-19 18:19:00,48.9,26.8,29.81,South,187,5.0,5.0,42,0.00,,,0.00,Wunderground v.1.15,2013-01-19 23:19:00,
2013-01-19 18:25:00,48.9,26.0,29.81,SE,138,7.0,14.0,41,0.00,,,0.00,weatherlink.com 1.10,2013-01-19 23:25:00,
2013-01-19 18:30:00,48.9,26.8,29.81,West,264,6.0,6.0,42,0.00,,,0.00,Wunderground v.1.15,2013-01-19 23:30:00,
2013-01-19 18:37:00,48.9,26.8,29.80,SW,222,6.0,8.0,42,0.00,,,0.00,Wunderground v.1.15,2013-01-19 23:37:00,
2013-01-19 18:44:00,48.7,26.6,29.80,NW,314,6.0,8.0,42,0.00,,,0.00,Wunderground v.1.15,2013-01-19 23:44:00,
2013-01-19 18:51:00,48.6,26.5,29.81,SSE,156,5.0,6.0,42,0.00,,,0.00,Wunderground v.1.15,2013-01-19 23:51:00,
2013-01-19 18:57:00,48.5,26.0,29.81,West,265,6.0,15.0,42,0.00,,,0.00,weatherlink.com 1.10,2013-01-19 23:57:00,
2013-01-19 19:03:00,48.4,26.3,29.81,WSW,250,5.0,5.0,42,0.00,,,0.00,Wunderground v.1.15,2013-01-20 00:03:00,
2013-01-19 19:09:00,48.4,26.9,29.81,NW,307,5.0,5.0,43,0.00,,,0.00,Wunderground v.1.15,2013-01-20 00:09:00,
2013-01-19 19:14:00,48.3,26.8,29.81,WSW,243,5.0,11.0,43,0.00,,,0.00,Wunderground v.1.15,2013-01-20 00:14:00,
2013-01-19 19:20:00,48.4,26.9,29.81,South,190,6.0,10.0,43,0.00,,,0.00,Wunderground v.1.15,2013-01-20 00:20:00,
2013-01-19 19:25:00,48.5,27.0,29.80,SSW,212,10.0,18.0,43,0.00,,,0.00,weatherlink.com 1.10,2013-01-20 00:25:00,
2013-01-19 19:30:00,48.4,26.9,29.80,SSW,203,6.0,8.0,43,0.00,,,0.00,Wunderground v.1.15,2013-01-20 00:30:00,
2013-01-19 19:35:00,48.4,26.9,29.80,WSW,248,5.0,11.0,43,0.00,,,0.00,Wunderground v.1.15,2013-01-20 00:35:00,
2013-01-19 19:43:00,48.4,26.9,29.80,SSE,154,5.0,14.0,43,0.00,,,0.00,Wunderground v.1.15,2013-01-20 00:43:00,
2013-01-19 19:49:00,48.3,27.4,29.80,ENE,58,6.0,8.0,44,0.00,,,0.00,Wunderground v.1.15,2013-01-20 00:49:00,
2013-01-19 19:58:00,48.3,27.4,29.79,SW,222,6.0,6.0,44,0.00,,,0.00,Wunderground v.1.15,2013-01-20 00:58:00,
2013-01-19 20:04:00,48.3,27.4,29.78,SE,132,7.0,10.0,44,0.00,,,0.00,Wunderground v.1.15,2013-01-20 01:04:00,
2013-01-19 20:10:00,48.3,27.4,29.78,SW,229,7.0,10.0,44,0.00,,,0.00,Wunderground v.1.15,2013-01-20 01:10:00,
2013-01-19 20:18:00,48.3,27.4,29.78,SSW,193,7.0,12.0,44,0.00,,,0.00,Wunderground v.1.15,2013-01-20 01:18:00,
2013-01-19 20:28:00,48.0,27.6,29.78,West,259,6.0,12.0,45,0.00,,,0.00,Wunderground v.1.15,2013-01-20 01:28:00,
2013-01-19 20:50:00,47.8,27.5,29.76,North,11,8.0,15.0,45,0.00,,,0.00,Wunderground v.1.15,2013-01-20 01:50:00,
2013-01-19 20:55:00,47.8,27.5,29.76,WSW,252,8.0,15.0,45,0.00,,,0.00,Wunderground v.1.15,2013-01-20 01:55:00,
2013-01-19 21:02:00,47.6,27.8,29.76,South,174,7.0,9.0,46,0.00,,,0.00,Wunderground v.1.15,2013-01-20 02:02:00,
2013-01-19 21:08:00,47.6,27.8,29.76,SSW,210,7.0,16.0,46,0.00,,,0.00,Wunderground v.1.15,2013-01-20 02:08:00,
2013-01-19 21:13:00,47.6,28.0,29.76,WSW,243,7.0,21.0,46,0.00,,,0.00,weatherlink.com 1.10,2013-01-20 02:13:00,
2013-01-19 21:18:00,47.5,27.7,29.76,South,177,7.0,7.0,46,0.00,,,0.00,Wunderground v.1.15,2013-01-20 02:18:00,
2013-01-19 21:24:00,47.5,27.7,29.76,SW,221,7.0,12.0,46,0.00,,,0.00,Wunderground v.1.15,2013-01-20 02:24:00,
2013-01-19 21:29:00,47.5,27.7,29.75,NW,309,8.0,13.0,46,0.00,,,0.00,Wunderground v.1.15,2013-01-20 02:29:00,
2013-01-19 21:35:00,47.3,28.1,29.75,NW,317,7.0,13.0,47,0.00,,,0.00,Wunderground v.1.15,2013-01-20 02:35:00,
2013-01-19 21:41:00,47.3,28.1,29.75,NW,324,7.0,19.0,47,0.00,,,0.00,Wunderground v.1.15,2013-01-20 02:41:00,
2013-01-19 21:47:00,47.1,27.9,29.75,WSW,246,6.0,19.0,47,0.00,,,0.00,Wunderground v.1.15,2013-01-20 02:47:00,
2013-01-19 21:53:00,47.1,27.9,29.74,West,277,7.0,18.0,47,0.00,,,0.00,Wunderground v.1.15,2013-01-20 02:53:00,
2013-01-19 21:58:00,47.1,27.9,29.74,WSW,240,8.0,8.0,47,0.00,,,0.00,Wunderground v.1.15,2013-01-20 02:58:00,
2013-01-19 22:04:00,47.1,27.9,29.74,SSW,203,7.0,8.0,47,0.00,,,0.00,Wunderground v.1.15,2013-01-20 03:04:00,
2013-01-19 22:10:00,46.9,28.2,29.74,NNW,342,6.0,6.0,48,0.00,,,0.00,Wunderground v.1.15,2013-01-20 03:10:00,
2013-01-19 22:15:00,46.9,28.0,29.73,ESE,110,10.0,19.0,48,0.00,,,0.00,weatherlink.com 1.10,2013-01-20 03:15:00,
2013-01-19 22:20:00,46.9,28.2,29.73,WNW,297,7.0,12.0,48,0.00,,,0.00,Wunderground v.1.15,2013-01-20 03:20:00,
2013-01-19 22:26:00,47.0,28.3,29.73,WNW,288,8.0,16.0,48,0.00,,,0.00,Wunderground v.1.15,2013-01-20 03:26:00,
2013-01-19 22:32:00,46.8,28.1,29.73,West,259,8.0,12.0,48,0.00,,,0.00,Wunderground v.1.15,2013-01-20 03:32:00,
2013-01-19 22:37:00,46.9,28.2,29.73,West,270,7.0,16.0,48,0.00,,,0.00,Wunderground v.1.15,2013-01-20 03:37:00,
2013-01-19 22:43:00,46.8,28.6,29.73,NNW,331,7.0,16.0,49,0.00,,,0.00,Wunderground v.1.15,2013-01-20 03:43:00,
2013-01-19 22:51:00,46.8,28.6,29.73,West,270,7.0,14.0,49,0.00,,,0.00,Wunderground v.1.15,2013-01-20 03:51:00,
2013-01-19 22:58:00,46.9,28.7,29.72,East,94,8.0,8.0,49,0.00,,,0.00,Wunderground v.1.15,2013-01-20 03:58:00,
2013-01-19 23:03:00,47.0,28.8,29.72,WSW,246,8.0,21.0,49,0.00,,,0.00,Wunderground v.1.15,2013-01-20 04:03:00,
2013-01-19 23:09:00,47.0,29.3,29.72,WSW,241,8.0,12.0,50,0.00,,,0.00,Wunderground v.1.15,2013-01-20 04:09:00,
2013-01-19 23:14:00,47.2,29.5,29.71,WSW,240,8.0,12.0,50,0.00,,,0.00,Wunderground v.1.15,2013-01-20 04:14:00,
2013-01-19 23:19:00,47.3,29.6,29.71,NW,307,9.0,15.0,50,0.00,,,0.00,Wunderground v.1.15,2013-01-20 04:19:00,
2013-01-19 23:24:00,47.4,29.7,29.71,SE,145,8.0,15.0,50,0.00,,,0.00,Wunderground v.1.15,2013-01-20 04:24:00,
2013-01-19 23:29:00,47.4,30.0,29.70,North,354,7.0,21.0,51,0.00,,,0.00,weatherlink.com 1.10,2013-01-20 04:29:00,
2013-01-19 23:37:00,47.6,30.3,29.70,West,266,9.0,18.0,51,0.00,,,0.00,Wunderground v.1.15,2013-01-20 04:37:00,
2013-01-19 23:42:00,47.5,30.3,29.70,WSW,252,8.0,9.0,51,0.00,,,0.00,Wunderground v.1.15,2013-01-20 04:42:00,
2013-01-19 23:48:00,47.5,30.3,29.69,SW,218,7.0,10.0,51,0.00,,,0.00,Wunderground v.1.15,2013-01-20 04:48:00,
2013-01-19 23:54:00,47.6,30.3,29.69,South,183,9.0,24.0,51,0.00,,,0.00,Wunderground v.1.15,2013-01-20 04:54:00,